DW7032 Weather Reports


Display with metric or nautical units.
time (UTC)temp
F
wind
direction
speed
MPH
gust
MPH
rain 1hr
in
rain 24hr
in
rain mn
in
humidity
%
barometer
mb
20240621083002 63 127 0.0 0.0 0.00 1.12 0.00 92 1023.8
20240621081504 63 127 0.0 0.0 0.00 1.12 0.00 92 1023.7
20240621080002 64 127 0.0 0.0 0.00 1.12 0.00 92 1023.8
20240621074559 64 127 0.0 0.0 0.00 1.37 0.00 92 1023.9
20240621073058 64 127 0.0 0.0 0.00 1.37 0.00 91 1023.9
20240621071600 64 127 0.0 0.0 0.00 1.37 0.00 91 1024.1
20240621070120 64 126 0.0 0.0 0.00 1.37 0.00 91 1024.2
20240621064554 64 127 0.0 0.0 0.00 1.38 0.00 91 1024.4
20240621063057 64 127 0.0 0.0 0.00 1.38 0.00 91 1024.4
20240621061551 64 127 0.0 0.0 0.00 1.38 0.00 90 1024.6
20240621060052 64 127 0.0 0.0 0.00 1.38 0.00 90 1024.6
20240621054551 64 127 0.0 0.0 0.00 1.38 0.00 90 1024.7
20240621053050 64 127 0.0 1.0 0.00 1.38 0.00 90 1024.7
20240621051549 65 127 0.0 1.0 0.00 1.38 0.00 91 1024.8
20240621050051 65 127 0.0 1.0 0.00 1.38 0.00 90 1024.6
20240621044548 65 127 0.0 0.0 0.00 1.38 0.00 90 1024.5
20240621043052 65 127 0.0 1.0 0.00 1.38 0.00 90 1024.6
20240621041544 65 127 0.0 0.0 0.00 1.38 0.00 89 1024.8
20240621040042 65 127 0.0 1.0 0.00 1.38 0.00 89 1024.9
20240621034542 65 127 0.0 0.0 0.00 1.38 1.38 88 1025.1
20240621033041 65 127 0.0 1.0 0.00 1.38 1.38 88 1025.1
20240621031542 65 127 0.0 0.0 0.00 1.38 1.38 88 1025.0
20240621030040 66 127 0.0 0.0 0.00 1.38 1.38 87 1024.8
20240621024540 66 127 0.0 0.0 0.00 1.38 1.38 87 1025.0
20240621023038 66 127 0.0 0.0 0.00 1.38 1.38 87 1025.1
20240621021551 66 127 0.0 1.0 0.00 1.38 1.38 87 1025.3
20240621020047 66 127 0.0 0.0 0.00 1.38 1.38 86 1025.2
20240621014537 66 127 1.0 2.0 0.00 1.38 1.38 86 1025.2
20240621013044 66 127 0.0 2.0 0.00 1.38 1.38 85 1025.0
20240621011536 66 127 0.0 2.0 0.00 1.38 1.38 86 1025.0
20240621010038 67 127 1.0 3.0 0.00 1.38 1.38 89 1025.0
20240621004541 67 127 0.0 1.0 0.00 1.38 1.38 88 1025.3
20240621003036 68 127 0.0 0.0 0.00 1.38 1.38 87 1025.3
20240621001541 68 127 0.0 1.0 0.00 1.38 1.38 87 1025.4
20240621000034 68 127 0.0 0.0 0.00 1.38 1.38 86 1025.3
20240620234533 68 127 0.0 1.0 0.00 1.38 1.38 86 1025.6
20240620233033 68 127 0.0 1.0 0.00 1.38 1.38 85 1025.7
20240620231535 68 127 0.0 2.0 0.00 1.38 1.38 85 1025.6
20240620230045 69 127 0.0 0.0 0.00 1.38 1.38 87 1025.7
20240620224531 69 127 0.0 1.0 0.00 1.38 1.38 86 1025.7
20240620223040 69 127 0.0 1.0 0.00 1.38 1.38 86 1025.7
20240620221542 69 127 0.0 2.0 0.00 1.38 1.38 86 1025.9
20240620220029 69 127 1.0 4.0 0.00 1.38 1.38 86 1025.9
20240620214529 69 127 0.0 1.0 0.00 1.38 1.38 86 1025.9
20240620213028 68 127 0.0 2.0 0.00 1.38 1.38 85 1025.9
20240620211528 69 127 0.0 3.0 0.00 1.38 1.38 85 1026.0
20240620210027 69 126 1.0 3.0 0.00 1.38 1.38 84 1026.0
20240620204532 70 127 0.0 2.0 0.00 1.38 1.38 85 1026.0
20240620203026 69 127 0.0 1.0 0.00 1.38 1.38 85 1025.9
20240620201525 69 127 0.0 3.0 0.00 1.38 1.38 84 1026.1
20240620200025 69 71 0.0 3.0 0.00 1.38 1.38 84 1026.4
20240620194533 69 71 0.0 3.0 0.00 1.38 1.38 83 1026.6
20240620193126 69 66 0.0 3.0 0.00 1.38 1.38 84 1026.6
20240620191522 69 64 0.0 2.0 0.00 1.38 1.38 85 1026.5
20240620190022 69 64 0.0 1.0 0.00 1.38 1.38 86 1026.6
20240620184520 68 64 0.0 3.0 0.00 1.38 1.38 84 1026.6
20240620183020 68 214 2.0 5.0 0.00 1.38 1.38 85 1026.7
20240620181519 67 235 0.0 3.0 0.00 1.38 1.38 88 1027.0
20240620180030 67 235 0.0 2.0 0.00 1.38 1.38 89 1027.2
20240620174512 67 235 0.0 3.0 0.00 1.38 1.38 91 1027.5
20240620173010 66 235 0.0 3.0 0.00 1.38 1.38 93 1027.4
20240620171507 65 235 0.0 2.0 0.00 1.38 1.38 93 1027.5
20240620170006 65 235 0.0 2.0 0.00 1.38 1.38 94 1027.6
20240620164506 64 235 1.0 3.0 0.00 1.38 1.38 95 1027.5
20240620163003 63 235 0.0 0.0 0.00 1.38 1.38 96 1027.7
20240620161511 63 235 0.0 2.0 0.00 1.38 1.38 96 1027.7
20240620160008 62 235 0.0 2.0 0.00 1.38 1.38 96 1027.7
20240620154503 62 235 0.0 1.0 0.00 1.38 1.38 96 1027.8
20240620153100 62 235 0.0 2.0 0.00 1.38 1.38 96 1027.9
20240620151600 61 235 0.0 1.0 0.00 1.38 1.38 96 1027.9
20240620150059 61 236 0.0 1.0 0.00 1.38 1.38 96 1027.9
20240620144603 61 235 0.0 0.0 0.00 1.38 1.38 96 1028.0
20240620143058 61 235 0.0 0.0 0.00 1.38 1.38 96 1027.9
20240620141602 61 235 0.0 0.0 0.00 1.38 1.38 96 1027.9
20240620140118 61 235 0.0 1.0 0.00 1.38 1.38 96 1028.0
20240620134608 61 235 0.0 0.0 0.00 1.38 1.38 96 1027.9
20240620133056 60 235 0.0 0.0 0.00 1.38 1.38 96 1027.8
20240620131554 60 235 0.0 0.0 0.00 1.38 1.38 96 1027.6
20240620130053 60 235 0.0 0.0 0.00 1.38 1.38 96 1027.6
20240620124553 60 236 0.0 0.0 0.00 1.38 1.38 96 1027.4
20240620123059 60 235 0.0 0.0 0.00 1.38 1.38 96 1027.5
20240620121552 59 235 0.0 0.0 0.00 1.38 1.38 96 1027.5
20240620120051 59 235 0.0 0.0 0.00 1.38 1.38 95 1027.3
20240620114551 59 235 0.0 0.0 0.01 1.38 1.38 95 1027.3
20240620113102 59 235 0.0 0.0 0.02 1.38 1.38 95 1027.5
20240620111548 59 235 0.0 0.0 0.08 1.38 1.38 95 1027.4
20240620110047 59 236 0.0 0.0 0.17 1.38 1.38 95 1027.2
20240620104545 59 235 0.0 0.0 0.35 1.37 1.37 95 1027.1
20240620103051 59 235 0.0 1.0 0.47 1.35 1.35 95 1026.9
20240620101550 59 235 1.0 2.0 0.59 1.30 1.30 94 1026.8
20240620100048 60 235 0.0 0.0 0.75 1.20 1.20 94 1026.8
20240620094547 60 235 0.0 0.0 0.71 1.01 1.01 94 1026.6
20240620093042 60 235 0.0 1.0 0.61 0.87 0.87 94 1026.5
20240620091536 60 235 0.0 1.0 0.44 0.70 0.70 94 1026.3
20240620090034 60 236 0.0 0.0 0.16 0.42 0.42 94 1026.2
20240620084538 60 235 0.0 0.0 0.04 0.30 0.30 93 1026.1
20240620083043 60 235 0.0 0.0 0.01 0.26 0.26 93 1025.8